Location: Unspecified
(0.0000°N, 0.0000°E)
Time: 23:55:31
(UTC+02:00)

Sapphire - Visible Passes

Search period start: 30 September 2014 00:00
Search period end: 10 October 2014 00:00
Orbit: 786 x 797 km, 67.1° (Epoch: 30 September)

Date Brightness Start Highest point End Pass type
(mag) Time Alt. Az. Time Alt. Az. Time Alt. Az.
30 Sep ? 21:10:53 10° N 21:14:22 31° NE 21:14:22 31° NE visible
01 Oct ? 20:41:09 10° NNE 20:45:23 24° ENE 20:47:00 21° E visible
01 Oct ? 22:24:21 10° WNW 22:27:56 22° W 22:27:56 22° W visible
02 Oct ? 20:11:54 10° NE 20:14:58 15° ENE 20:18:01 10° ESE visible
02 Oct ? 21:53:15 10° NW 21:58:07 35° WSW 22:01:38 17° SSW visible
03 Oct ? 21:22:27 10° NNW 21:27:42 54° WSW 21:32:58 10° S visible
04 Oct ? 20:51:54 10° NNW 20:57:18 83° WSW 21:02:42 10° SSE visible
05 Oct ? 20:21:33 10° N 20:26:53 64° ENE 20:32:14 10° SSE visible
06 Oct ? 07:17:42 10° SE 07:20:06 13° ESE 07:22:30 10° E visible
06 Oct ? 21:37:22 10° W 21:39:39 13° WSW 21:41:56 10° SW visible
07 Oct ? 21:05:22 10° WNW 21:09:13 20° WSW 21:13:04 10° SSW visible
08 Oct ? 20:34:07 10° NW 20:38:47 30° WSW 20:43:29 10° S visible
09 Oct ? 20:03:14 10° NW 20:08:23 46° WSW 20:13:32 10° S visible
